NOAA 16 DEB, 41206

Orbit data source: Space-Track

NOAA 16 DEB, 41206 is space debris in SSO originally from a launch on Thu, 21 Sep 2000 UTC launched from the Air Force Western Test Range (AFWTR). Debris objects in space refer to the collection of defunct objects orbiting the Earth. Examples of debris include non-operational satellites, rocket bodies, and fragments generated from explosions, collisions, or faulty payload assembly.

Loading next visibility...
Identifier
41206, 2000-055DK
Orbit
SSO
Country
Flag of USUS
Related business
Manufacturer
Unknown
Mission
Spacecraft
Bus & Motor
Unknown
Mass
Unknown
Launch date (UTC)
2000-09-21 (25 years ago)
Launch vehicle
Unknown
Launch site
Air Force Western Test Range (AFWTR)
Object type
Payload
Rocket body
Debris
Shape & HBR
Unknown shape, 0.1 m
Radar Cross Section
Small (<0.1 m²)

Expand to show TLE details & history
Last TLE update: 6 hours ago

TLE from 6 hours ago
0 NOAA 16 DEB
1 41206U 00055DK  26062.08164546  .00003393  00000-0  14514-2 0  9998
2 41206  98.6203 105.4635 0013557 113.6821 246.5783 14.25531180527469
Epoch: 2026-03-03T01:57Z
TLE epoch observation values (Epoch: 2026-03-03T01:57:34.167Z)
Latitude
-0.00004°
Longitude
-84.79468°
Altitude
813.516 km
Speed
7.444 km/s
True Right ascension
07h 01m 51s
True Declination
0° 00' 00"
Sunlit
Object was in full shadow at epoch
Visualization orbit readout
Latitude
Unknown
Longitude
Unknown
Altitude
Unknown
Speed
Unknown
Apparent Right ascension
Unknown
Apparent Declination
Unknown
Sunlit
N/A
Visualization observer readout
Local Sidereal Time
11:30:20
Azimuth
Unknown
Elevation
Unknown
Doppler factor
Unknown
Orbital elements
Apogee altitude
813.591 km
Perigee altitude
794.118 km
Semi-major axis
7,181.991 km
Eccentricity
0.00136
Inclination
98.6203°
RAAN
105.4635°
Arg. of periapsis
113.6821°
True anomaly
246.43584°
Mean anomaly
246.5783°
Eccentric anomaly
246.50706°
Mean motion
3.56596 °/min
Orbital period
100.95 mins
BSTAR
0.0014514
Loading maneuver chart data...
Computing Atmospheric mass density...
Loading historical data...
Loading historical data...
Loading historical data...
Loading historical data...
Loading historical data...
Loading historical data...
Loading historical data...

Documentation

Showing up to 5 results
|